Location: Arbus
(39.5272°N, 8.5994°E)
Time: 04:07:51
(UTC+00:00)

Daily predictions for brighter satellites

Satellite Brightness Start Highest point End
(mag) Time Altitude Azimuth Time Altitude Azimuth Time Altitude Azimuth
Cosmos 1125 Rocket 4.4 00:12:13 46° NNE 00:12:13 46° NNE 00:15:53 10° NNE
CZ-2D R/B 3.6 00:11:23 10° NE 00:15:24 28° E 00:15:24 28° E
SeaSat 1 4.1 00:17:53 10° N 00:21:30 26° NW 00:21:30 26° NW
USA 215 3.9 00:27:25 41° WNW 00:27:25 41° WNW 00:31:41 10° NW
Gbstr 26 Del rocket 4.0 00:22:13 10° NW 00:28:15 63° N 00:28:15 63° N
ATLAS 2AS CENTAUR R/B 4.3 00:28:38 10° NW 00:31:38 21° WNW 00:31:38 21° WNW
ADEOS II 3.8 00:37:57 10° NE 00:42:02 23° E 00:42:26 22° E
Resurs 1-4 Rocket 2.7 00:38:29 10° NNE 00:43:02 51° ENE 00:43:02 51° ENE
ISS -0.6 00:49:25 15° N 00:49:25 15° N 00:50:30 10° NNE
Cosmos 1605 Rocket 3.9 00:45:35 10° N 00:51:48 87° WNW 00:51:48 87° WNW
Cosmos 1269 Rocket 4.5 00:46:52 10° N 00:52:05 56° ENE 00:52:09 56° ENE
Meteor 2-20 4.4 00:55:25 76° ESE 00:55:39 77° E 01:01:50 10° N
Helios 1B rocket 3.8 00:52:53 10° NNE 00:55:32 37° NE 00:55:32 37° NE
Okean 1 Rocket 4.1 00:54:37 10° N 00:58:02 42° NE 00:58:02 42° NE
Cosmos 2369 Rocket 4.0 01:00:33 18° WNW 01:01:19 19° NW 01:05:12 10° N
ATLAS CENTAUR R/B 3.4 01:06:27 21° NNW 01:06:27 21° NNW 01:08:15 10° N
Meteor 1-21 4.3 01:09:05 67° SE 01:09:30 70° E 01:15:18 10° NNE
USA 281 3.2 01:13:59 60° WSW 01:13:59 60° WSW 01:20:23 10° NNW
Cosmos 1726 3.7 01:15:12 10° N 01:17:26 33° NNE 01:17:26 33° NNE
Cosmos 1400 Rocket 4.2 01:15:45 10° NNW 01:18:14 35° NNW 01:18:14 35° NNW
SL-16 R/B 2.4 01:23:23 65° SSW 01:24:19 78° WSW 01:30:38 10° NNW
Cosmos 2100 Rocket 4.2 01:19:53 10° N 01:26:09 69° E 01:28:31 40° SSE
Cosmos 1470 4.0 01:27:12 10° N 01:29:38 37° NNW 01:29:38 37° NNW
Cosmos 1697 Rocket 4.5 01:29:27 18° SE 01:31:47 23° E 01:36:05 10° NE
NPP 3.7 01:34:27 10° N 01:39:45 59° WNW 01:40:11 57° W
Lacrosse 5 1.8 01:41:38 68° W 01:42:02 73° NW 01:47:08 10° NE
Cosmos 1455 Rocket 3.9 01:39:08 10° N 01:43:18 46° E 01:44:38 34° SE
CZ-2C R/B 3.6 01:48:48 11° ESE 01:48:48 11° ESE 01:48:54 10° ESE
OAO 3 Rocket 4.3 01:49:35 31° SE 01:49:35 31° SE 01:52:29 10° ESE
Cosmos 1727 Rocket 4.4 01:47:05 42° W 01:47:59 45° WNW 01:54:03 10° N
Cosmos 44 Rocket 3.3 01:43:50 10° NW 01:48:53 65° WSW 01:48:53 65° WSW
Cosmos 2227 Rocket 3.7 01:45:22 10° N 01:50:32 35° ENE 01:55:40 10° SE
SL-19 R/B 4.4 01:46:05 10° N 01:51:39 54° WNW 01:52:32 48° WSW
Cosmos 1000 Rocket 4.5 01:52:08 49° SSW 01:53:51 70° W 02:00:09 10° N
Cosmos 2297 Rocket 3.1 01:48:58 10° NNW 01:54:28 49° ENE 01:59:57 10° SE
ARGOS Delta rocket 3.7 01:51:08 10° N 01:55:39 62° WNW 01:55:58 60° W
CZ-2D R/B 3.0 01:51:15 10° N 01:56:05 34° WNW 01:56:44 33° W
CBERS-1 4.0 01:56:05 10° NNE 02:01:13 83° ESE 02:02:45 46° S
MSX 4.5 02:00:47 10° NNE 02:06:24 51° E 02:10:10 21° SSE
Cosmos 1975 Rocket 3.2 02:10:56 52° W 02:11:15 53° W 02:15:31 10° N
Cosmos 371 Rocket 3.2 02:11:20 50° SSW 02:12:36 81° WNW 02:17:31 10° NNE
Cosmos 1953 2.2 02:09:05 10° N 02:13:05 86° E 02:14:05 49° SSE
IDEFIX/ARIANE 42P 2.6 02:09:06 10° NNE 02:14:23 82° ESE 02:16:49 33° S
In-Cosmos 22 4.4 02:12:54 41° SW 02:14:33 56° WNW 02:20:03 10° N
Cosmos 332 Rocket 4.1 02:13:00 35° S 02:14:58 65° ESE 02:19:49 10° NNE
BREEZE-M R/B 4.2 02:11:34 15° WNW 02:15:39 55° SW 02:25:49 10° SE
COSMOS 2455 2.8 02:10:15 10° NNW 02:16:18 85° ENE 02:22:19 10° SSE
Cosmos 1674 2.8 02:20:29 53° W 02:20:41 54° W 02:24:27 10° N
ADEOS II 2.6 02:16:56 10° N 02:21:52 42° WNW 02:23:23 34° WSW
CZ-4B R/B 3.8 02:17:51 10° NNE 02:22:46 63° ESE 02:25:56 22° S
Resurs 1-4 Rocket 3.7 02:19:23 10° NNW 02:23:01 19° WNW 02:24:07 18° W
CZ-2C R/B 4.4 02:19:36 10° NE 02:23:50 26° E 02:28:04 10° SSE
KORONAS-FOTON 4.1 02:24:15 48° W 02:24:35 49° W 02:28:24 10° N
Cosmos 1725 Rocket 3.9 02:19:24 10° N 02:25:41 78° W 02:30:43 16° S
Timation 2 Rocket 4.0 02:19:43 10° NNW 02:25:43 76° ENE 02:31:44 10° SSE
ISS -0.6 02:25:11 10° NNW 02:26:01 11° N 02:26:50 10° NNE
Cosmos 2061 Rocket 4.0 02:19:45 10° NNW 02:26:02 71° W 02:30:45 19° S
Cosmos 2219 3.3 02:23:05 10° NNW 02:28:49 83° ENE 02:34:33 10° SSE
Cosmos 2251 Rocket 3.4 02:27:46 10° NNW 02:32:58 67° WSW 02:38:02 10° S
ADEOS Rocket 3.5 02:29:32 15° S 02:35:34 60° W 02:43:10 10° NNW
IRS-1D 4.3 02:31:17 10° N 02:36:11 39° WNW 02:38:16 28° WSW
CZ-4C R/B 3.7 02:36:09 32° SSW 02:37:51 51° W 02:42:03 10° NNW
Cosmos 1371 Rocket 4.4 02:34:58 17° S 02:38:52 60° ESE 02:44:01 10° NNE
Cosmos 1300 3.8 02:37:27 10° N 02:41:07 43° E 02:44:45 10° SSE
Cosmos 2233 Rocket 3.9 02:36:21 10° N 02:42:36 89° WSW 02:48:45 10° S
Cosmos 1656 4.2 02:41:04 27° WSW 02:43:32 42° WNW 02:48:45 10° N
Cosmos 2016 Rocket 4.3 02:38:28 10° NNW 02:44:25 46° W 02:48:26 20° SSW
Tianhe-1 1.1 02:46:52 26° WNW 02:48:28 79° NNE 02:51:36 10° E
Lacrosse 4 Rocket 1.9 02:46:19 20° S 02:49:20 60° ESE 02:53:43 10° NE
Cosmos 2360 4.2 02:46:58 20° SSW 02:50:59 88° WNW 02:56:46 10° NNE
Cosmos 1908 3.8 02:47:45 10° NNW 02:51:20 36° W 02:52:34 29° SW
IRS-1C 4.3 02:47:12 10° N 02:52:27 58° WNW 02:56:03 20° SW
BREEZE-M DEB (TANK) 1.6 02:53:18 54° WSW 02:53:39 79° NNW 02:56:22 10° NE
Cosmos 1315 Rocket 4.4 02:51:23 10° NW 02:54:01 19° W 02:54:01 19° W
USA 276 3.8 02:53:51 17° WNW 02:55:29 26° NNW 02:58:13 10° NE
TSX-5 3.6 02:53:56 10° NNW 02:57:24 88° SW 03:01:36 10° SSE
Cosmos 1025 Rocket 4.0 02:58:08 23° WSW 02:59:49 30° WNW 03:03:41 10° NNW
GP-B 4.0 03:00:53 10° NNW 03:04:48 31° W 03:07:08 19° SW
Cosmos 1626 3.2 03:03:50 22° WSW 03:05:07 28° WNW 03:08:21 10° NNW
SL-14 R/B 3.6 03:03:20 21° SW 03:05:34 45° W 03:09:21 10° N
Iridium 2 4.2 03:05:52 20° SW 03:07:59 39° W 03:11:35 10° NNW
SL-16 R/B 4.4 03:08:28 10° W 03:08:49 10° W 03:09:17 10° W
CZ-2D R/B 3.7 03:04:59 10° N 03:09:19 62° WNW 03:13:09 13° SSW
Cosmos 1544 Rocket 4.5 03:06:09 10° NNW 03:09:56 29° W 03:12:36 16° SW
USA 129 1.5 03:08:34 13° S 03:10:38 72° WSW 03:12:39 10° NNW
ARIANE 5 R/B 3.0 03:10:27 10° N 03:15:20 44° WNW 03:19:33 13° SW
Cosmos 1697 Rocket 3.1 03:11:11 16° SW 03:15:22 46° WNW 03:20:47 10° NNE
SAR-Lupe-3 4.5 03:12:33 10° N 03:16:08 77° WNW 03:19:43 10° SSW
SL-08 R/B 3.5 03:11:57 10° S 03:16:32 48° W 03:21:05 10° NNW
Cosmos 1606 Rocket 4.4 03:13:01 10° N 03:17:18 53° E 03:21:37 10° SSE
Cosmos 1140 Rocket 3.4 03:16:26 10° NNW 03:21:38 71° WSW 03:26:49 10° S
Cosmos 1190 Rocket 3.9 03:17:51 10° NNW 03:23:04 82° WSW 03:28:18 10° SSE
Cosmos 1980 Rocket 2.2 03:19:20 10° SSW 03:25:00 76° WNW 03:30:43 10° NNE
CZ-2C R/B 1.5 03:23:04 16° WSW 03:25:09 33° S 03:28:08 10° ESE
Lacrosse 5 3.9 03:22:14 10° WNW 03:25:48 19° NNW 03:29:23 10° NNE
Cosmos 1340 2.8 03:24:20 10° SSW 03:27:59 52° WNW 03:31:40 10° N
Cosmos 1420 Rocket 4.0 03:24:00 10° SSW 03:29:13 86° WNW 03:34:27 10° NNE
Cosmos 2369 4.2 03:25:31 12° SW 03:30:40 47° WNW 03:36:13 10° NNE
OAO 3 Rocket 4.4 03:27:24 12° WSW 03:30:50 23° SSW 03:34:41 10° SSE
Cosmos 1346 Rocket 3.8 03:28:59 10° S 03:32:44 47° E 03:36:30 10° NNE
Cosmos 2227 Rocket 2.9 03:29:33 10° NW 03:34:27 31° WSW 03:39:21 10° SSW
Cosmos 2278 3.8 03:28:48 10° SSW 03:34:30 72° WNW 03:40:14 10° NNE
CZ-3B R/B 3.8 03:34:57 10° SSW 03:37:27 15° SSE 03:41:15 10° ESE
Cosmos 2297 Rocket 3.3 03:33:53 10° NW 03:38:06 22° W 03:42:19 10° SSW
Meteor 2-10 Rocket 3.8 03:33:46 10° N 03:39:35 88° W 03:45:10 10° S
Cosmos 1891 Rocket 4.4 03:35:31 10° N 03:41:36 75° W 03:47:36 10° S
Cosmos 676 Rocket 4.0 03:40:05 10° NNW 03:45:22 87° WSW 03:50:39 10° SSE
Cosmos 2082 3.9 03:40:18 10° NNW 03:45:47 51° WSW 03:51:16 10° S
Cosmos 2228 3.1 03:42:24 10° NNW 03:46:35 57° W 03:50:46 10° S
APEX 4.2 03:44:06 10° NW 03:48:27 46° WSW 03:53:48 10° S
ALOS 2.3 03:44:00 10° N 03:48:40 84° WNW 03:53:20 10° SSW
Cosmos 407 Rocket 4.2 03:46:45 10° NW 03:51:29 33° W 03:56:12 10° SSW
SL-16 R/B 3.2 03:46:21 10° S 03:51:46 49° ESE 03:57:12 10° NE
